World > North America > United States > Arizona

Overgaard, Arizona Regional Weather

Lat: 34.39N, Lon: 110.55W
Wx Zone: AZZ016
Feedback

Overgaard, AZ Regional Weather

Expires:201909160300;;854341
ASUS45 KPSR 160210
RWRAZ 

ARIZONA HOURLY REGIONAL WEATHER ROUNDUP
NATIONAL WEATHER SERVICE PHOENIX AZ
700 PM MST SUN SEP 15 2019

NOTE: FAIR INDICATES FEW OR NO CLOUDS BELOW 12,000 FEET WITH NO
SIGNIFICANT WEATHER AND/OR OBSTRUCTIONS TO VISIBILITY.


AZZ004>008-015-016-018-160300-
NORTH CENTRAL ARIZONA
  
CITY           SKY/WX    TMP DP  RH WIND       PRES   REMARKS
GRAND CANYON   MOCLDY    65  43  44 SE7       30.23R                  
WILLIAMS       MOCLDY    66  45  45 SE5       30.23                   
PRESCOTT       PTCLDY    75  51  43 SE6       30.10R                  
FLAGSTAFF      PTCLDY    59  43  55 E5        30.26R                  
PAYSON         CLOUDY    68  52  56 N6        30.14                   
PAGE           PTCLDY    80  43  26 S18G24    30.02S                  
$$


SKY/WX - Weather  TMP - Temperature  DP - Dew Point  RH - Relative Humidity
WIND - Wind Direction/Speed PRES - Barometric Pressure VSB - Visibility
WCI - Wind Chill Index E13G22 Wind - East Wind 13 mph/Gusts of 22 mph